AFL1105 UHMM-UHWW

Flight info

Callsign AFL1105
Flight time N/A
Altitude 38000
Route BANOT5E BANOT L160 NA N222 FI/K0830F320 W307 TD B355 BG G714 DAGES DAGES2N
Aircraft B77W/H-SDE1E2E3FGHIJ2J3J4J5M1RWXY/LB1D1

Departure

Time N/A
Airport Sokol Airport (UHMM)

Arrival

Time 2026-04-17 12:30
Airport Vladivostok International Airport (UHWW)
Time Latitude Longitude Altitude Speed Heading
2026-04-17 10:31 54.76032 142.41338 38006 ft 466 kts 215°
2026-04-17 10:32 54.70565 142.35202 37992 ft 465 kts 215°
2026-04-17 10:32 54.65167 142.29164 38001 ft 465 kts 215°
2026-04-17 10:33 54.59732 142.23104 37989 ft 465 kts 215°
2026-04-17 10:33 54.54305 142.17071 37996 ft 464 kts 215°
2026-04-17 10:34 54.48878 142.11056 37992 ft 464 kts 215°
2026-04-17 10:34 54.43451 142.05061 37990 ft 464 kts 215°
2026-04-17 10:35 54.38021 141.99084 37989 ft 463 kts 215°
2026-04-17 10:35 54.32600 141.93135 37985 ft 463 kts 215°
2026-04-17 10:36 54.27174 141.87199 37984 ft 462 kts 215°
2026-04-17 10:36 54.21750 141.81283 37977 ft 462 kts 215°
2026-04-17 10:37 54.16329 141.75392 37970 ft 462 kts 215°
2026-04-17 10:37 54.10909 141.69520 37975 ft 461 kts 215°
2026-04-17 10:38 54.05500 141.63675 37975 ft 461 kts 215°
2026-04-17 10:38 54.00083 141.57840 37973 ft 461 kts 215°
2026-04-17 10:39 53.94666 141.52024 37969 ft 460 kts 215°
2026-04-17 10:39 53.89252 141.46229 37967 ft 460 kts 215°
2026-04-17 10:40 53.83835 141.40450 37963 ft 460 kts 215°
2026-04-17 10:40 53.78422 141.34691 37962 ft 459 kts 215°
2026-04-17 10:41 53.73011 141.28951 37956 ft 459 kts 215°
2026-04-17 10:41 53.67597 141.23226 37956 ft 459 kts 215°
2026-04-17 10:42 53.62181 141.17528 37950 ft 459 kts 215°
2026-04-17 10:42 53.56765 141.11851 37955 ft 458 kts 215°
2026-04-17 10:43 53.51347 141.06185 37956 ft 458 kts 214°
2026-04-17 10:43 53.45963 141.00570 37957 ft 459 kts 214°
2026-04-17 10:44 53.40542 140.94932 37954 ft 459 kts 214°
2026-04-17 10:44 53.35111 140.89301 37958 ft 460 kts 214°
2026-04-17 10:45 53.29663 140.83670 37956 ft 460 kts 214°
2026-04-17 10:45 53.24208 140.78050 37951 ft 461 kts 214°
2026-04-17 10:46 53.18750 140.72440 37953 ft 461 kts 214°
2026-04-17 10:46 53.13332 140.66726 37932 ft 460 kts 218°
2026-04-17 10:47 53.08198 140.60408 37950 ft 458 kts 220°
2026-04-17 10:47 53.03156 140.53916 37946 ft 458 kts 220°
2026-04-17 10:48 52.98081 140.47512 37950 ft 458 kts 219°
2026-04-17 10:48 52.92977 140.41200 37948 ft 458 kts 219°
2026-04-17 10:49 52.87863 140.34918 37930 ft 457 kts 219°
2026-04-17 10:49 52.82762 140.28659 37935 ft 456 kts 219°
2026-04-17 10:50 52.77668 140.22421 37933 ft 456 kts 219°
2026-04-17 10:50 52.72571 140.16198 37935 ft 455 kts 219°
2026-04-17 10:51 52.67477 140.09995 37927 ft 455 kts 219°
2026-04-17 10:51 52.62374 140.03810 37925 ft 455 kts 219°
2026-04-17 10:52 52.57174 139.97854 37926 ft 456 kts 217°
2026-04-17 10:52 52.51907 139.92032 37887 ft 456 kts 217°
2026-04-17 10:53 52.46655 139.86221 37917 ft 455 kts 217°
2026-04-17 10:53 52.41417 139.80393 37924 ft 454 kts 217°
2026-04-17 10:54 52.36234 139.74621 37928 ft 454 kts 217°
2026-04-17 10:54 52.31016 139.68823 37927 ft 453 kts 217°
2026-04-17 10:55 52.25804 139.63052 37921 ft 452 kts 217°
2026-04-17 10:55 52.20597 139.57306 37912 ft 451 kts 217°
2026-04-17 10:56 52.15400 139.51588 37916 ft 451 kts 217°
2026-04-17 10:56 52.10194 139.45876 37914 ft 451 kts 217°
2026-04-17 10:57 52.04993 139.40185 37899 ft 450 kts 217°
2026-04-17 10:57 51.99794 139.34513 37906 ft 450 kts 217°
2026-04-17 10:58 51.94597 139.28859 37915 ft 450 kts 217°
2026-04-17 10:58 51.89394 139.23215 37918 ft 450 kts 217°
2026-04-17 10:59 51.84187 139.17583 37905 ft 450 kts 217°
2026-04-17 10:59 51.78979 139.11964 37912 ft 450 kts 217°
2026-04-17 11:00 51.73773 139.06364 37909 ft 450 kts 217°
2026-04-17 11:00 51.68560 139.00773 37915 ft 450 kts 217°
2026-04-17 11:01 51.63342 138.95193 37908 ft 450 kts 217°
2026-04-17 11:01 51.58124 138.89626 37897 ft 450 kts 216°
2026-04-17 11:02 51.52899 138.84068 37899 ft 451 kts 216°
2026-04-17 11:02 51.47658 138.78510 37898 ft 452 kts 216°
2026-04-17 11:03 51.42408 138.72958 37899 ft 452 kts 216°
2026-04-17 11:03 51.37183 138.67446 37872 ft 453 kts 217°
2026-04-17 11:04 51.31923 138.61915 37883 ft 453 kts 217°
2026-04-17 11:04 51.26655 138.56390 37890 ft 453 kts 216°
2026-04-17 11:05 51.21388 138.50878 37896 ft 453 kts 216°
2026-04-17 11:05 51.16116 138.45379 37871 ft 453 kts 216°
2026-04-17 11:06 51.10831 138.39881 37883 ft 454 kts 216°
2026-04-17 11:06 51.05541 138.34393 37877 ft 454 kts 216°
2026-04-17 11:07 51.01135 138.29833 37870 ft 455 kts 216°
2026-04-17 11:07 50.95828 138.24352 37876 ft 455 kts 216°
2026-04-17 11:08 50.90569 138.18802 37851 ft 450 kts 220°
2026-04-17 11:08 50.85640 138.12683 37875 ft 451 kts 221°
2026-04-17 11:09 50.80711 138.06526 37867 ft 452 kts 221°
2026-04-17 11:09 50.75737 138.00413 37865 ft 453 kts 221°
2026-04-17 11:10 50.68272 137.91304 37857 ft 452 kts 221°
2026-04-17 11:10 50.63298 137.85240 37852 ft 451 kts 221°
2026-04-17 11:11 50.58340 137.79205 37854 ft 450 kts 221°
2026-04-17 11:11 50.53391 137.73199 37859 ft 449 kts 221°
2026-04-17 11:12 50.48447 137.67216 37854 ft 448 kts 221°
2026-04-17 11:12 50.43530 137.61279 37854 ft 448 kts 221°
2026-04-17 11:13 50.38567 137.55303 37854 ft 447 kts 221°
2026-04-17 11:13 50.33519 137.49588 37841 ft 448 kts 218°
2026-04-17 11:14 50.28336 137.44175 37855 ft 448 kts 217°
2026-04-17 11:14 50.23171 137.38740 37843 ft 447 kts 218°
2026-04-17 11:15 50.18044 137.33258 37848 ft 446 kts 218°
2026-04-17 11:15 50.12929 137.27784 37833 ft 445 kts 218°
2026-04-17 11:16 50.07821 137.22352 37840 ft 444 kts 218°
2026-04-17 11:16 50.02740 137.17018 37845 ft 443 kts 217°
2026-04-17 11:17 49.97632 137.11690 37842 ft 442 kts 217°
2026-04-17 11:17 49.92534 137.06378 37843 ft 441 kts 217°
2026-04-17 11:18 49.87439 137.01074 37840 ft 440 kts 217°
2026-04-17 11:18 49.82347 136.95786 37834 ft 440 kts 217°
2026-04-17 11:19 49.77254 136.90510 37835 ft 441 kts 217°
2026-04-17 11:19 49.72153 136.85240 37836 ft 441 kts 217°
2026-04-17 11:20 49.67042 136.79974 37831 ft 441 kts 217°
2026-04-17 11:20 49.61925 136.74715 37833 ft 442 kts 217°
2026-04-17 11:21 49.56804 136.69464 37799 ft 443 kts 217°
2026-04-17 11:21 49.51680 136.64223 37827 ft 442 kts 217°
2026-04-17 11:22 49.46531 136.59023 37825 ft 443 kts 215°
2026-04-17 11:22 49.40964 136.54882 37827 ft 448 kts 203°
2026-04-17 11:23 49.34964 136.52148 37835 ft 451 kts 200°
2026-04-17 11:23 49.28960 136.49348 37828 ft 451 kts 202°
2026-04-17 11:24 49.23080 136.46181 37830 ft 451 kts 204°
2026-04-17 11:24 49.17180 136.42925 37827 ft 452 kts 204°
2026-04-17 11:25 49.11228 136.39819 37808 ft 452 kts 203°
2026-04-17 11:25 49.05261 136.36806 37826 ft 452 kts 203°
2026-04-17 11:26 48.99296 136.33803 37818 ft 451 kts 203°
2026-04-17 11:26 48.93349 136.30801 37829 ft 450 kts 203°
2026-04-17 11:27 48.87406 136.27807 37826 ft 450 kts 203°
2026-04-17 11:27 48.81459 136.24844 37829 ft 449 kts 202°
2026-04-17 11:28 48.75510 136.21920 37827 ft 449 kts 202°
2026-04-17 11:28 48.69575 136.19011 37825 ft 448 kts 202°
2026-04-17 11:29 48.63638 136.16101 37834 ft 448 kts 202°
2026-04-17 11:29 48.57708 136.13199 37833 ft 448 kts 202°
2026-04-17 11:30 48.51772 136.10300 37835 ft 448 kts 202°
2026-04-17 11:30 48.45833 136.07407 37835 ft 448 kts 202°
2026-04-17 11:31 48.39905 136.04527 37836 ft 448 kts 202°
2026-04-17 11:31 48.34005 136.01668 37815 ft 448 kts 202°
2026-04-17 11:32 48.28071 135.98801 37834 ft 448 kts 202°
2026-04-17 11:32 48.22139 135.95940 37840 ft 448 kts 202°
2026-04-17 11:33 48.16202 135.93082 37843 ft 448 kts 202°
2026-04-17 11:33 48.10257 135.90229 37846 ft 448 kts 202°
2026-04-17 11:34 48.04312 135.87383 37847 ft 448 kts 202°
2026-04-17 11:34 47.98368 135.84544 37846 ft 448 kts 202°
2026-04-17 11:35 47.92431 135.81716 37845 ft 448 kts 202°
2026-04-17 11:35 47.86495 135.78896 37863 ft 447 kts 202°
2026-04-17 11:36 47.80563 135.76083 37854 ft 447 kts 202°
2026-04-17 11:36 47.74630 135.73276 37855 ft 447 kts 202°
2026-04-17 11:37 47.68699 135.70476 37856 ft 448 kts 202°
2026-04-17 11:37 47.62758 135.67679 37851 ft 448 kts 202°
2026-04-17 11:38 47.56824 135.64893 37832 ft 447 kts 202°
2026-04-17 11:38 47.50895 135.62116 37842 ft 447 kts 202°
2026-04-17 11:39 47.44959 135.59340 37851 ft 447 kts 202°
2026-04-17 11:39 47.39020 135.56570 37855 ft 447 kts 202°
2026-04-17 11:40 47.33124 135.53826 37851 ft 448 kts 202°
2026-04-17 11:40 47.27175 135.51065 37845 ft 448 kts 202°
2026-04-17 11:41 47.21223 135.48311 37851 ft 448 kts 202°
2026-04-17 11:41 47.15275 135.45565 37853 ft 448 kts 202°
2026-04-17 11:42 47.09318 135.42820 37853 ft 449 kts 202°
2026-04-17 11:42 47.03362 135.40082 37845 ft 449 kts 202°
2026-04-17 11:43 46.97397 135.37345 37853 ft 449 kts 202°
2026-04-17 11:43 46.91439 135.34618 37850 ft 449 kts 202°
2026-04-17 11:44 46.85476 135.31894 37845 ft 449 kts 202°
2026-04-17 11:44 46.79525 135.29158 37839 ft 448 kts 202°
2026-04-17 11:45 46.73614 135.26307 37850 ft 447 kts 203°
2026-04-17 11:45 46.67715 135.23430 37845 ft 447 kts 203°
2026-04-17 11:46 46.61854 135.20593 37853 ft 447 kts 203°
2026-04-17 11:46 46.55914 135.17742 37844 ft 447 kts 203°
2026-04-17 11:47 46.50050 135.14937 37854 ft 446 kts 202°
2026-04-17 11:47 46.44157 135.12124 37841 ft 445 kts 203°
2026-04-17 11:48 46.38269 135.09320 37849 ft 445 kts 203°
2026-04-17 11:48 46.32390 135.06525 37850 ft 445 kts 202°
2026-04-17 11:49 46.26511 135.03736 37853 ft 445 kts 202°
2026-04-17 11:49 46.20632 135.00953 37860 ft 444 kts 202°
2026-04-17 11:50 46.14760 134.98180 37853 ft 444 kts 202°
2026-04-17 11:50 46.08883 134.95411 37836 ft 444 kts 202°
2026-04-17 11:51 46.03015 134.92653 37850 ft 444 kts 202°
2026-04-17 11:51 45.97145 134.89898 37850 ft 444 kts 202°
2026-04-17 11:52 45.91284 134.87103 37859 ft 442 kts 205°
2026-04-17 11:52 45.85775 134.83438 37855 ft 434 kts 213°
2026-04-17 11:53 45.80564 134.79031 37866 ft 436 kts 214°
2026-04-17 11:53 45.76209 134.75368 37860 ft 438 kts 213°
2026-04-17 11:54 45.70906 134.71043 37859 ft 439 kts 213°
2026-04-17 11:54 45.65570 134.66762 37855 ft 440 kts 213°
2026-04-17 11:55 45.60218 134.62481 37860 ft 441 kts 213°
2026-04-17 11:55 45.54865 134.58197 37857 ft 441 kts 213°
2026-04-17 11:56 45.49520 134.53923 37846 ft 440 kts 213°
2026-04-17 11:56 45.44180 134.49660 37856 ft 440 kts 213°
2026-04-17 11:57 45.38842 134.45409 37859 ft 439 kts 213°
2026-04-17 11:57 45.33514 134.41177 37862 ft 439 kts 213°
2026-04-17 11:58 45.28174 134.36944 37855 ft 439 kts 213°
2026-04-17 11:58 45.22836 134.32721 37858 ft 439 kts 213°
2026-04-17 11:59 45.17510 134.28517 37846 ft 438 kts 213°
2026-04-17 11:59 45.12181 134.24320 37848 ft 438 kts 213°
2026-04-17 12:00 45.06862 134.20140 37872 ft 438 kts 213°
2026-04-17 12:00 45.01533 134.15959 37856 ft 438 kts 213°
2026-04-17 12:01 44.96223 134.11803 37849 ft 439 kts 213°
2026-04-17 12:01 44.93546 134.09710 37603 ft 443 kts 213°
2026-04-17 12:01 44.90842 134.07598 37097 ft 443 kts 213°
2026-04-17 12:02 44.88164 134.05512 36613 ft 437 kts 213°
2026-04-17 12:02 44.85519 134.03455 36136 ft 431 kts 213°
2026-04-17 12:02 44.82903 134.01419 35590 ft 428 kts 213°
2026-04-17 12:02 44.80327 133.99363 35056 ft 424 kts 214°
2026-04-17 12:03 44.77787 133.97292 34542 ft 420 kts 214°
2026-04-17 12:03 44.75279 133.95225 34038 ft 416 kts 215°
2026-04-17 12:03 44.72795 133.93174 33513 ft 412 kts 215°
2026-04-17 12:03 44.70335 133.91147 32968 ft 408 kts 214°
2026-04-17 12:04 44.67905 133.89150 32461 ft 402 kts 214°
2026-04-17 12:04 44.65496 133.87177 31980 ft 398 kts 214°
2026-04-17 12:04 44.63119 133.85236 31495 ft 394 kts 214°
2026-04-17 12:04 44.60760 133.83314 31022 ft 390 kts 214°
2026-04-17 12:05 44.58427 133.81417 30550 ft 386 kts 214°
2026-04-17 12:05 44.56114 133.79538 30076 ft 382 kts 214°
2026-04-17 12:05 44.53821 133.77677 29538 ft 379 kts 214°
2026-04-17 12:05 44.51554 133.75842 29054 ft 374 kts 214°
2026-04-17 12:06 44.49319 133.74033 28580 ft 369 kts 214°
2026-04-17 12:06 44.47104 133.72243 28109 ft 365 kts 213°
2026-04-17 12:06 44.44921 133.70478 27653 ft 361 kts 213°
2026-04-17 12:06 44.42755 133.68729 27170 ft 357 kts 213°
2026-04-17 12:07 44.40612 133.66999 26732 ft 354 kts 213°
2026-04-17 12:07 44.38494 133.65290 26302 ft 350 kts 213°
2026-04-17 12:07 44.36394 133.63598 25864 ft 347 kts 213°
2026-04-17 12:07 44.34313 133.61922 25429 ft 344 kts 213°
2026-04-17 12:08 44.32248 133.60261 25014 ft 341 kts 213°
2026-04-17 12:08 44.30197 133.58613 24599 ft 339 kts 213°
2026-04-17 12:08 44.28187 133.56997 24158 ft 337 kts 213°
2026-04-17 12:08 44.26166 133.55376 23750 ft 334 kts 213°
2026-04-17 12:09 44.24156 133.53763 23323 ft 332 kts 213°
2026-04-17 12:09 44.22162 133.52166 22862 ft 330 kts 213°
2026-04-17 12:09 44.20177 133.50577 22439 ft 327 kts 213°
2026-04-17 12:09 44.18213 133.49007 22019 ft 324 kts 213°
2026-04-17 12:10 44.16269 133.47455 21618 ft 321 kts 213°
2026-04-17 12:10 44.14339 133.45914 21219 ft 318 kts 213°
2026-04-17 12:10 44.12426 133.44387 20811 ft 316 kts 213°
2026-04-17 12:10 44.10528 133.42873 20425 ft 313 kts 213°
2026-04-17 12:11 44.08643 133.41369 20050 ft 311 kts 213°
2026-04-17 12:11 44.06772 133.39879 19668 ft 309 kts 213°
2026-04-17 12:11 44.04912 133.38399 19287 ft 308 kts 213°
2026-04-17 12:12 44.01215 133.35460 18521 ft 305 kts 213°
2026-04-17 12:12 43.99374 133.33997 18136 ft 304 kts 213°
2026-04-17 12:12 43.97537 133.32538 17694 ft 304 kts 213°
2026-04-17 12:12 43.95711 133.31090 17291 ft 302 kts 213°
2026-04-17 12:13 43.93891 133.29648 16912 ft 299 kts 213°
2026-04-17 12:13 43.92088 133.28221 16538 ft 298 kts 213°
2026-04-17 12:13 43.90297 133.26804 16169 ft 295 kts 214°
2026-04-17 12:13 43.88654 133.25225 15786 ft 281 kts 224°
2026-04-17 12:14 43.87352 133.23265 15436 ft 274 kts 237°
2026-04-17 12:14 43.86336 133.21034 15107 ft 275 kts 240°
2026-04-17 12:14 43.85357 133.18769 14763 ft 282 kts 239°
2026-04-17 12:14 43.84284 133.16440 14385 ft 290 kts 237°
2026-04-17 12:15 43.83128 133.14139 14006 ft 292 kts 236°
2026-04-17 12:15 43.81930 133.11821 13603 ft 292 kts 236°
2026-04-17 12:15 43.80756 133.09536 13175 ft 291 kts 236°
2026-04-17 12:15 43.79598 133.07252 12789 ft 289 kts 237°
2026-04-17 12:16 43.78458 133.04979 12411 ft 287 kts 237°
2026-04-17 12:16 43.77331 133.02714 12042 ft 284 kts 237°
2026-04-17 12:16 43.76220 133.00469 11680 ft 282 kts 237°
2026-04-17 12:16 43.75130 132.98263 11326 ft 281 kts 237°
2026-04-17 12:17 43.74031 132.96037 10958 ft 279 kts 237°
2026-04-17 12:17 43.72941 132.93830 10590 ft 276 kts 237°
2026-04-17 12:17 43.71863 132.91650 10271 ft 273 kts 236°
2026-04-17 12:17 43.70824 132.89550 10125 ft 255 kts 236°
2026-04-17 12:18 43.69851 132.87586 10012 ft 242 kts 237°
2026-04-17 12:18 43.68917 132.85705 9847 ft 235 kts 238°
2026-04-17 12:18 43.67994 132.83839 9544 ft 234 kts 238°
2026-04-17 12:18 43.67080 132.81993 9256 ft 232 kts 238°
2026-04-17 12:19 43.66169 132.80155 8959 ft 232 kts 238°
2026-04-17 12:19 43.65309 132.78251 8679 ft 237 kts 242°
2026-04-17 12:19 43.64489 132.76241 8369 ft 242 kts 243°
2026-04-17 12:19 43.63670 132.74200 8062 ft 243 kts 243°
2026-04-17 12:20 43.62856 132.72171 7818 ft 241 kts 243°
2026-04-17 12:20 43.62041 132.70160 7516 ft 239 kts 242°
2026-04-17 12:20 43.61230 132.68163 7236 ft 238 kts 242°
2026-04-17 12:20 43.60417 132.66170 6933 ft 239 kts 243°
2026-04-17 12:21 43.59576 132.64200 6619 ft 238 kts 241°
2026-04-17 12:21 43.58727 132.62249 6388 ft 235 kts 242°
2026-04-17 12:21 43.57925 132.60338 6300 ft 225 kts 243°
2026-04-17 12:21 43.57172 132.58490 6177 ft 217 kts 243°
2026-04-17 12:22 43.56446 132.56686 5819 ft 219 kts 243°
2026-04-17 12:22 43.55690 132.54790 5283 ft 229 kts 243°
2026-04-17 12:22 43.54917 132.52855 4933 ft 231 kts 242°
2026-04-17 12:22 43.54140 132.50916 4620 ft 231 kts 242°
2026-04-17 12:23 43.53376 132.49007 4326 ft 230 kts 242°
2026-04-17 12:23 43.52594 132.47052 4016 ft 229 kts 240°
2026-04-17 12:23 43.51852 132.45199 3696 ft 216 kts 239°
2026-04-17 12:23 43.51161 132.43476 3515 ft 195 kts 239°
2026-04-17 12:24 43.50527 132.41899 3441 ft 181 kts 238°
2026-04-17 12:24 43.49940 132.40439 3360 ft 172 kts 238°
2026-04-17 12:24 43.49363 132.39008 3357 ft 173 kts 238°
2026-04-17 12:24 43.48777 132.37549 3227 ft 170 kts 237°
2026-04-17 12:25 43.48242 132.36210 3098 ft 149 kts 237°
2026-04-17 12:25 43.47774 132.35039 3005 ft 132 kts 236°
2026-04-17 12:25 43.47330 132.33939 2919 ft 133 kts 236°
2026-04-17 12:25 43.46886 132.32834 2745 ft 132 kts 235°
2026-04-17 12:26 43.46444 132.31739 2559 ft 130 kts 236°
2026-04-17 12:26 43.46008 132.30654 2394 ft 129 kts 236°
2026-04-17 12:26 43.45575 132.29574 2208 ft 129 kts 236°
2026-04-17 12:26 43.45139 132.28491 2025 ft 129 kts 235°
2026-04-17 12:27 43.44704 132.27408 1842 ft 129 kts 236°
2026-04-17 12:27 43.44270 132.26329 1678 ft 128 kts 235°
2026-04-17 12:27 43.43837 132.25253 1485 ft 129 kts 236°
2026-04-17 12:27 43.43400 132.24168 1311 ft 131 kts 236°
2026-04-17 12:28 43.42957 132.23066 1119 ft 133 kts 237°
2026-04-17 12:28 43.42506 132.21947 934 ft 134 kts 238°
2026-04-17 12:28 43.42061 132.20836 745 ft 132 kts 238°
2026-04-17 12:28 43.41615 132.19730 573 ft 133 kts 238°
2026-04-17 12:29 43.41176 132.18638 354 ft 129 kts 240°
2026-04-17 12:29 43.40742 132.17566 141 ft 127 kts 241°
2026-04-17 12:29 43.40319 132.16504 41 ft 127 kts 241°
2026-04-17 12:29 43.39902 132.15480 38 ft 113 kts 240°
2026-04-17 12:30 43.39611 132.14762 38 ft 59 kts 240°
2026-04-17 12:30 43.39496 132.14478 38 ft 18 kts 242°
2026-04-17 12:30 43.39433 132.14317 39 ft 19 kts 242°
2026-04-17 12:30 43.39345 132.14195 40 ft 19 kts 183°
2026-04-17 12:31 43.39223 132.14274 38 ft 20 kts 137°
2026-04-17 12:31 43.39232 132.14451 38 ft 20 kts 62°
2026-04-17 12:31 43.39299 132.14618 38 ft 20 kts 61°
2026-04-17 12:31 43.39367 132.14785 38 ft 20 kts 61°
2026-04-17 12:32 43.39434 132.14952 38 ft 20 kts 61°
2026-04-17 12:32 43.39501 132.15117 38 ft 20 kts 61°
2026-04-17 12:32 43.39568 132.15285 38 ft 20 kts 61°
2026-04-17 12:32 43.39637 132.15454 38 ft 20 kts 61°
2026-04-17 12:33 43.39703 132.15619 38 ft 20 kts 61°
2026-04-17 12:33 43.39771 132.15786 38 ft 20 kts 61°
2026-04-17 12:33 43.39837 132.15950 37 ft 16 kts 61°
2026-04-17 12:33 43.39875 132.16060 38 ft 12 kts 82°
2026-04-17 12:34 43.39834 132.16147 38 ft 12 kts 148°
2026-04-17 12:34 43.39784 132.16188 38 ft 8 kts 150°
2026-04-17 12:34 43.39746 132.16244 38 ft 8 kts 111°
2026-04-17 12:34 43.39759 132.16318 38 ft 8 kts 56°
2026-04-17 12:35 43.39789 132.16384 38 ft 8 kts 59°
2026-04-17 12:35 43.39816 132.16447 38 ft 6 kts 60°
2026-04-17 12:35 43.39829 132.16479 38 ft 3 kts 63°
2026-04-17 12:35 43.39818 132.16504 38 ft 3 kts 134°
2026-04-17 12:37 43.39763 132.16550 38 ft 0 kts 152°